This demonstration page uses our WeatherBlox Daily Observations layout. Learn more.

Left ArrowRight Arrow

Hourly Observations for May 7, 2016

Temp ( °F °C ) Dew Point ( °F °C ) Humidity (%) Winds ( mph kmh ) Pressure ( in mb ) Visibility ( mi km ) Precip ( " mm )
12:54 am 00:54 Clear 69 20.6 48 8.9 47 47 SSW 8 13 29.83 1010 10 16 0.00 0.00
1:54 am 01:54 Clear 68 20 48 8.9 49 49 SW 9 15 29.83 1010 10 16 0.00 0.00
2:54 am 02:54 Clear 66 18.9 48 8.9 52 52 SW 8 13 29.83 1010 10 16 0.00 0.00
3:54 am 03:54 Clear 63 17.2 48 8.9 58 58 SSE 3 6 29.83 1010 10 16 0.00 0.00
4:54 am 04:54 Clear 60 15.6 49 9.4 67 67 N 17 28 29.89 1012 10 16 0.00 0.00
5:54 am 05:54 Clear 57 13.9 50 10 78 78 S 8 13 29.88 1012 10 16 0.00 0.00
6:54 am 06:54 Sunny 59 15 51 10.6 75 75 Calm 29.89 1012 10 16 0.00 0.00
7:54 am 07:54 Partly Cloudy 66 18.9 52 11.1 61 61 Calm 29.88 1012 10 16 0.00 0.00
8:54 am 08:54 Partly Cloudy 67 19.4 52 11.1 59 59 S 6 9 29.88 1012 10 16 0.00 0.00
9:54 am 09:54 Sunny 71 21.7 53 11.7 53 53 E 5 7 29.89 1012 10 16 0.00 0.00
10:54 am 10:54 Sunny 75 23.9 53 11.7 46 46 NE 9 15 29.89 1012 10 16 0.00 0.00
11:54 am 11:54 Sunny 75 23.9 53 11.7 46 46 NNE 15 24 29.91 1013 9 14 0.00 0.00
12:54 pm 12:54 Sunny 76 24.4 53 11.7 45 45 NE 16 26 29.90 1013 7 11 0.00 0.00
1:54 pm 13:54 Hazy 75 23.9 53 11.7 46 46 NE 18 30 29.89 1012 5 8 0.00 0.00
2:16 pm 14:16 Hazy 75 24 52 11 44 44 NE 16 26 29.85 1011 2 3 0.00 0.00
2:21 pm 14:21 Mostly Cloudy with Haze 75 23.9 52 11.1 45 45 NE 16 26 29.85 1011 2 3 0.00 0.00
2:49 pm 14:49 Cloudy with Haze 77 25 52 11 42 42 E 14 22 29.85 1011 1 1 0.00 0.00
2:54 pm 14:54 Cloudy with Haze 76 24.4 51 10.6 42 42 ENE 14 22 29.88 1012 2 2 0.00 0.00
3:54 pm 15:54 Cloudy with Haze 76 24.4 47 8.3 36 36 ENE 13 20 29.88 1012 2 2 0.00 0.00
4:54 pm 16:54 Cloudy with Haze 74 23.3 47 8.3 38 38 ENE 15 24 29.86 1011 2 3 0.00 0.00
5:01 pm 17:01 Cloudy with Haze 74 23.3 47 8.3 38 38 ENE 14 22 29.83 1010 2 3 0.00 0.00
5:54 pm 17:54 Cloudy with Haze 73 22.8 45 7.2 37 37 E 14 22 29.85 1011 3 4 0.00 0.00
6:04 pm 18:04 Mostly Cloudy with Haze 72 22 45 7 38 38 ENE 13 20 29.85 1011 3 5 0.00 0.00
6:14 pm 18:14 Hazy 72 22 45 7 38 38 ENE 15 24 29.85 1011 3 5 0.00 0.00
6:54 pm 18:54 Hazy 71 21.7 45 7.2 39 39 ENE 12 19 29.84 1011 4 6 0.00 0.00
7:54 pm 19:54 Hazy 69 20.6 43 6.1 39 39 ENE 9 15 29.85 1011 4 6 0.00 0.00
8:54 pm 20:54 Hazy 67 19.4 40 4.4 37 37 ENE 14 22 29.83 1010 6 10 0.00 0.00
9:54 pm 21:54 Hazy 66 18.9 38 3.3 36 36 E 7 11 29.87 1012 6 10 0.00 0.00
10:54 pm 22:54 Hazy 64 17.8 37 2.8 37 37 ENE 12 19 29.88 1012 6 10 0.00 0.00
11:54 pm 23:54 Hazy 63 17.2 35 1.7 35 35 ENE 9 15 29.88 1012 5 8 0.00 0.00

Powered by AerisWeather